FW8576 Weather Reports


time (UTC)temp
C
wind
direction
speed
KPH
gust
KPH
rain 1hr
cm
rain 24hr
cm
rain mn
cm
humidity
%
barometer
mb
20260906093407 -17 0.0 0.0 0.00 0.00 0.00 1015.4
20260906092906 -17 0.0 0.0 0.00 0.00 0.00 1015.5
20260906092401 -17 0.0 0.0 0.00 0.00 0.00 1015.5
20260906091856 -17 0.0 0.0 0.00 0.00 0.00 1015.7
20260906091352 -17 0.0 0.0 0.00 0.00 0.00 1015.4
20260906090849 -17 0.0 0.0 0.00 0.00 0.00 1015.7
20260906090348 -17 0.0 0.0 0.00 0.00 0.00 1015.4
20260906085842 -17 0.0 0.0 0.00 0.00 0.00 1015.2
20260906085342 -17 0.0 0.0 0.00 0.00 0.00 1015.3
20260906084837 -17 0.0 0.0 0.00 0.00 0.00 1015.2
20260906084337 -17 0.0 0.0 0.00 0.00 0.00 1015.0
20260906083831 -17 0.0 0.0 0.00 0.00 0.00 1015.2
20260906083326 -17 0.0 0.0 0.00 0.00 0.00 1014.8
20260906082821 -17 0.0 0.0 0.00 0.00 0.00 1014.8
20260906082316 -17 0.0 0.0 0.00 0.00 0.00 1015.1
20260906081812 -17 0.0 0.0 0.00 0.00 0.00 1015.1
20260906081307 -17 0.0 0.0 0.00 0.00 0.00 1015.0
20260906080803 -17 0.0 0.0 0.00 0.00 0.00 1015.0
20260906080259 -17 0.0 0.0 0.00 0.00 0.00 1015.1
20260906075758 -17 0.0 0.0 0.00 0.00 0.00 1015.1
20260906075253 -17 0.0 0.0 0.00 0.00 0.00 1014.9
20260906074749 -17 0.0 0.0 0.00 0.00 0.00 1015.0
20260906074248 -17 0.0 0.0 0.00 0.00 0.00 1014.8
20260906073747 -17 0.0 0.0 0.00 0.00 0.00 1015.1
20260906073242 -17 0.0 0.0 0.00 0.00 0.00 1015.0
20260906072738 -17 0.0 0.0 0.00 0.00 0.00 1015.1
20260906072234 -17 0.0 0.0 0.00 0.00 0.00 1015.2
20260906071729 -17 0.0 0.0 0.00 0.00 0.00 1015.0
20260906071224 -17 0.0 0.0 0.00 0.00 0.00 1015.1
20260906070720 -17 0.0 0.0 0.00 0.00 0.00 1015.3
20260906070215 -17 0.0 0.0 0.00 0.00 0.00 1015.0
20260906065710 -17 0.0 0.0 0.00 0.00 0.00 1015.2
20260906065205 -17 0.0 0.0 0.00 0.00 0.00 1015.0
20260906064701 -17 0.0 0.0 0.00 0.00 0.00 1015.1
20260906064156 -17 0.0 0.0 0.00 0.00 0.00 1015.3
20260906063651 -17 0.0 0.0 0.00 0.00 0.00 1015.1
20260906063147 -17 0.0 0.0 0.00 0.00 0.00 1015.4
20260906062642 -17 0.0 0.0 0.00 0.00 0.00 1015.4
20260906062140 -17 0.0 0.0 0.00 0.00 0.00 1015.5
20260906061637 -17 0.0 0.0 0.00 0.00 0.00 1015.6
20260906061137 -17 0.0 0.0 0.00 0.00 0.00 1015.6
20260906060634 -17 0.0 0.0 0.00 0.00 0.00 1015.7
20260906060130 -17 0.0 0.0 0.00 0.00 0.00 1015.6
20260906055626 -17 0.0 0.0 0.05 0.00 0.00 1015.7
20260906055121 -17 0.0 0.0 0.05 0.00 0.00 1015.6
20260906054616 -17 0.0 0.0 0.00 0.00 0.00 1015.9
20260906054111 -17 0.0 0.0 0.00 0.00 0.00 1015.9
20260906053608 -17 0.0 0.0 0.00 0.00 0.00 1015.8
20260906053103 -17 0.0 0.0 0.00 0.00 0.00 1016.0
20260906052558 -17 0.0 0.0 0.00 0.00 0.00 1015.9
20260906052055 -17 0.0 0.0 0.00 0.00 0.00 1015.9
20260906051550 -17 0.0 0.0 0.00 0.00 0.00 1015.6
20260906051046 -17 0.0 0.0 0.00 0.00 0.00 1015.8
20260906050541 -17 0.0 0.0 0.00 0.00 0.00 1015.8
20260906050036 -17 0.0 0.0 0.00 0.00 0.00 1016.1
20260906045534 -17 0.0 0.0 0.00 0.00 0.00 1015.9
20260906045030 -17 0.0 0.0 0.00 0.00 0.00 1016.0
20260906044525 -17 0.0 0.0 0.00 0.00 0.00 1016.0
20260906044015 -17 0.0 0.0 0.00 0.00 0.00 1015.8
20260906043511 -17 0.0 0.0 0.00 0.00 0.00 1015.8
20260906043007 -17 0.0 0.0 0.00 0.00 0.00 1015.8
20260906042505 -17 0.0 0.0 0.00 0.00 0.00 1016.0
20260906042005 -17 0.0 0.0 0.00 0.00 0.00 1015.8
20260906041502 -17 0.0 0.0 0.00 0.00 0.00 1015.9
20260906041001 -17 0.0 0.0 0.00 0.00 0.00 1016.1
20260906040456 -17 0.0 0.0 0.00 0.00 0.00 1016.2
20260906035951 -17 0.0 0.0 0.00 0.10 0.10 1016.1
20260906035447 -17 0.0 0.0 0.00 0.10 0.10 1016.1
20260906034942 -17 0.0 0.0 0.00 0.10 0.10 1016.2
20260906034437 -17 0.0 0.0 0.00 0.10 0.10 1016.1
20260906033933 -17 0.0 0.0 0.00 0.10 0.10 1016.5
20260906033432 -17 0.0 0.0 0.00 0.10 0.10 1016.3
20260906032928 -17 0.0 0.0 0.00 0.10 0.10 1016.6
20260906032425 -17 0.0 0.0 0.00 0.10 0.10 1016.4
20260906031919 -17 0.0 0.0 0.00 0.10 0.10 1016.4
20260906031414 -17 0.0 0.0 0.05 0.10 0.10 1016.4
20260906030909 -17 0.0 0.0 0.48 0.10 0.10 1016.4
20260906030404 -17 0.0 0.0 0.53 0.10 0.10 1016.4
20260906025858 -17 0.0 0.0 0.05 0.00 0.00 1016.5
20260906025353 -17 0.0 0.0 0.00 0.00 0.00 1016.8
20260906024852 -17 0.0 0.0 0.00 0.00 0.00 1016.5
20260906024351 -17 0.0 0.0 0.00 0.00 0.00 1016.7
20260906023846 -17 0.0 0.0 0.00 0.00 0.00 1016.4
20260906023343 -17 0.0 0.0 0.00 0.00 0.00 1016.4
20260906022837 -17 0.0 0.0 0.00 0.00 0.00 1016.4
20260906022338 -17 0.0 0.0 0.00 0.00 0.00 1016.4
20260906021833 -17 0.0 0.0 0.00 0.00 0.00 1016.7
20260906021332 -17 0.0 0.0 0.00 0.00 0.00 1016.5
20260906020828 -17 0.0 0.0 0.00 0.00 0.00 1016.7
20260906020327 -17 0.0 0.0 0.00 0.00 0.00 1016.4
20260906015822 -17 0.0 0.0 0.00 0.00 0.00 1016.2
20260906015320 -17 0.0 0.0 0.00 0.00 0.00 1016.3
20260906014815 -17 0.0 0.0 0.00 0.00 0.00 1016.2
20260906014310 -17 0.0 0.0 0.00 0.00 0.00 1016.2
20260906013806 -17 0.0 0.0 0.00 0.00 0.00 1016.0
20260906013301 -17 0.0 0.0 0.00 0.00 0.00 1016.0
20260906012756 -17 0.0 0.0 0.00 0.00 0.00 1016.1
20260906012251 -17 0.0 0.0 0.00 0.00 0.00 1016.1
20260906011746 -17 0.0 0.0 0.00 0.00 0.00 1015.9
20260906011246 -17 0.0 0.0 0.00 0.00 0.00 1015.8
20260906010742 -17 0.0 0.0 0.00 0.00 0.00 1015.7
20260906010238 -17 0.0 0.0 0.00 0.00 0.00 1015.6
20260906005733 -17 0.0 0.0 0.00 0.00 0.00 1015.5
20260906005232 -17 0.0 0.0 0.00 0.00 0.00 1015.4
20260906004731 -17 0.0 0.0 0.00 0.00 0.00 1015.5
20260906004221 -17 0.0 0.0 0.00 0.00 0.00 1015.7
20260906003715 -17 0.0 0.0 0.00 0.00 0.00 1015.8
20260906003211 -17 0.0 0.0 0.00 0.00 0.00 1015.7
20260906002711 -17 0.0 0.0 0.00 0.00 0.00 1015.4
20260906002206 -17 0.0 0.0 0.00 0.00 0.00 1015.6
20260906001702 -17 0.0 0.0 0.00 0.00 0.00 1015.5
20260906001202 -17 0.0 0.0 0.00 0.00 0.00 1015.4
20260906000657 -17 0.0 0.0 0.00 0.00 0.00 1015.4
20260906000152 -17 0.0 0.0 0.00 0.00 0.00 1015.3
20260905235651 -17 0.0 0.0 0.00 0.00 0.00 1015.4
20260905235146 -17 0.0 0.0 0.00 0.00 0.00 1015.3
20260905234641 -17 0.0 0.0 0.00 0.00 0.00 1015.1
20260905234137 -17 0.0 0.0 0.00 0.00 0.00 1015.2
20260905233632 -17 0.0 0.0 0.00 0.00 0.00 1015.2
20260905233126 -17 0.0 0.0 0.00 0.00 0.00 1015.3
20260905232622 -17 0.0 0.0 0.00 0.00 0.00 1015.2
20260905232117 -17 0.0 0.0 0.00 0.00 0.00 1014.8
20260905231617 -17 0.0 0.0 0.00 0.00 0.00 1014.9
20260905231113 -17 0.0 0.0 0.00 0.00 0.00 1015.2
20260905230609 -17 0.0 0.0 0.00 0.00 0.00 1015.2
20260905230107 -17 0.0 0.0 0.00 0.00 0.00 1014.9
20260905225607 -17 0.0 0.0 0.00 0.00 0.00 1015.0
20260905225102 -17 0.0 0.0 0.00 0.00 0.00 1015.2
20260905224602 -17 0.0 0.0 0.00 0.00 0.00 1014.7
20260905224101 -17 0.0 0.0 0.00 0.00 0.00 1014.7
20260905223559 -17 0.0 0.0 0.00 0.00 0.00 1014.8
20260905223054 -17 0.0 0.0 0.00 0.00 0.00 1014.8
20260905222554 -17 0.0 0.0 0.00 0.00 0.00 1014.8
20260905222050 -17 0.0 0.0 0.00 0.00 0.00 1014.5
20260905221546 -17 0.0 0.0 0.00 0.00 0.00 1014.7
20260905221042 -17 0.0 0.0 0.00 0.00 0.00 1014.6
20260905220537 -17 0.0 0.0 0.00 0.00 0.00 1014.8
20260905220033 -17 0.0 0.0 0.00 0.00 0.00 1014.7
20260905215532 -17 0.0 0.0 0.00 0.00 0.00 1014.3
20260905215029 -17 0.0 0.0 0.00 0.00 0.00 1013.9
20260905214525 -17 0.0 0.0 0.00 0.00 0.00 1013.8
20260905214019 -17 0.0 0.0 0.00 0.00 0.00 1013.8
20260905213515 -17 0.0 0.0 0.00 0.00 0.00 1014.1
20260905213010 -17 0.0 0.0 0.00 0.00 0.00 1013.8
20260905212505 -17 0.0 0.0 0.00 0.00 0.00 1014.0
20260905212004 -17 0.0 0.0 0.00 0.00 0.00 1014.0
20260905211500 -17 0.0 0.0 0.00 0.00 0.00 1013.9
20260905210955 -17 0.0 0.0 0.00 0.00 0.00 1014.3
20260905210451 -17 0.0 0.0 0.00 0.00 0.00 1014.5
20260905205950 -17 0.0 0.0 0.00 0.00 0.00 1014.3
20260905205445 -17 0.0 0.0 0.00 0.00 0.00 1014.4
20260905204943 -17 0.0 0.0 0.00 0.00 0.00 1014.5
20260905204440 -17 0.0 0.0 0.00 0.00 0.00 1014.2
20260905203939 -17 0.0 0.0 0.00 0.00 0.00 1014.3
20260905203434 -17 0.0 0.0 0.00 0.00 0.00 1014.2
20260905202930 -17 0.0 0.0 0.00 0.00 0.00 1014.0
20260905202425 -17 0.0 0.0 0.00 0.00 0.00 1014.1
20260905201920 -17 0.0 0.0 0.00 0.00 0.00 1014.3
20260905201416 -17 0.0 0.0 0.00 0.00 0.00 1014.4
20260905200915 -17 0.0 0.0 0.00 0.00 0.00 1014.4
20260905200411 -17 0.0 0.0 0.00 0.00 0.00 1014.4
20260905195909 -17 0.0 0.0 0.00 0.00 0.00 1014.5
20260905195405 -17 0.0 0.0 0.00 0.00 0.00 1014.6
20260905194900 -17 0.0 0.0 0.00 0.00 0.00 1014.7
20260905194400 -17 0.0 0.0 0.00 0.00 0.00 1014.8
20260905193900 -17 0.0 0.0 0.00 0.00 0.00 1014.6
20260905193355 -17 0.0 0.0 0.00 0.00 0.00 1014.7
20260905192850 -17 0.0 0.0 0.00 0.00 0.00 1014.8
20260905192345 -17 0.0 0.0 0.00 0.00 0.00 1015.1
20260905191845 -17 0.0 0.0 0.00 0.00 0.00 1015.1
20260905191344 -17 0.0 0.0 0.00 0.00 0.00 1014.9
20260905190843 -17 0.0 0.0 0.00 0.00 0.00 1015.1
20260905190336 -17 0.0 0.0 0.00 0.00 0.00 1015.0
20260905185835 -17 0.0 0.0 0.00 0.00 0.00 1015.1
20260905185331 -17 0.0 0.0 0.00 0.00 0.00 1015.2
20260905184830 -17 0.0 0.0 0.00 0.00 0.00 1015.2
20260905184329 -17 0.0 0.0 0.00 0.00 0.00 1015.5
20260905183828 -17 0.0 0.0 0.00 0.00 0.00 1015.7
20260905183323 -17 0.0 0.0 0.00 0.00 0.00 1015.8
20260905182818 -17 0.0 0.0 0.00 0.00 0.00 1015.7
20260905182318 -17 0.0 0.0 0.00 0.00 0.00 1015.7
20260905181813 -17 0.0 0.0 0.00 0.00 0.00 1016.0
20260905181313 -17 0.0 0.0 0.00 0.00 0.00 1015.9
20260905180812 -17 0.0 0.0 0.00 0.00 0.00 1016.0
20260905180307 -17 0.0 0.0 0.00 0.00 0.00 1016.2
20260905175802 -17 0.0 0.0 0.00 0.00 0.00 1016.3
20260905175256 -17 0.0 0.0 0.00 0.00 0.00 1016.2
20260905174752 -17 0.0 0.0 0.00 0.00 0.00 1016.3
20260905174248 -17 0.0 0.0 0.00 0.00 0.00 1016.5
20260905173743 -17 0.0 0.0 0.00 0.00 0.00 1016.3
20260905173239 -17 0.0 0.0 0.00 0.00 0.00 1016.5
20260905172733 -17 0.0 0.0 0.00 0.00 0.00 1016.6
20260905172232 -17 0.0 0.0 0.00 0.00 0.00 1016.5
20260905171729 -17 0.0 0.0 0.00 0.00 0.00 1016.7
20260905171225 -17 0.0 0.0 0.00 0.00 0.00 1016.7
20260905170721 -17 0.0 0.0 0.00 0.00 0.00 1016.5
20260905170221 -17 0.0 0.0 0.00 0.00 0.00 1016.7
20260905165715 -17 0.0 0.0 0.00 0.00 0.00 1017.0
20260905165210 -17 0.0 0.0 0.00 0.00 0.00 1017.0
20260905164705 -17 0.0 0.0 0.00 0.00 0.00 1017.3
20260905164205 -17 0.0 0.0 0.00 0.00 0.00 1017.1
20260905163701 -17 0.0 0.0 0.00 0.00 0.00 1017.2
20260905163157 -17 0.0 0.0 0.00 0.00 0.00 1017.5
20260905162653 -17 0.0 0.0 0.00 0.00 0.00 1017.5
20260905162152 -17 0.0 0.0 0.00 0.00 0.00 1017.6
20260905161647 -17 0.0 0.0 0.00 0.00 0.00 1017.8
20260905161144 -17 0.0 0.0 0.00 0.00 0.00 1017.8
20260905160639 -17 0.0 0.0 0.00 0.00 0.00 1018.0
20260905160138 -17 0.0 0.0 0.00 0.00 0.00 1018.0
20260905155633 -17 0.0 0.0 0.00 0.00 0.00 1018.3
20260905155132 -17 0.0 0.0 0.00 0.00 0.00 1018.0
20260905154632 -17 0.0 0.0 0.00 0.00 0.00 1017.9
20260905154128 -17 0.0 0.0 0.00 0.00 0.00 1018.0
20260905153623 -17 0.0 0.0 0.00 0.00 0.00 1018.2
20260905153119 -17 0.0 0.0 0.00 0.00 0.00 1018.3
20260905152613 -17 0.0 0.0 0.00 0.00 0.00 1017.9
20260905152108 -17 0.0 0.0 0.00 0.00 0.00 1018.0
20260905151603 -17 0.0 0.0 0.00 0.00 0.00 1017.9
20260905151058 -17 0.0 0.0 0.00 0.00 0.00 1018.1
20260905150553 -17 0.0 0.0 0.00 0.00 0.00 1018.2
20260905150051 -17 0.0 0.0 0.00 0.00 0.00 1018.4
20260905145545 -17 0.0 0.0 0.00 0.00 0.00 1018.5
20260905145044 -17 0.0 0.0 0.00 0.00 0.00 1018.5
20260905144539 -17 0.0 0.0 0.00 0.00 0.00 1018.4
20260905144038 -17 0.0 0.0 0.00 0.00 0.00 1018.5
20260905143538 -17 0.0 0.0 0.00 0.00 0.00 1018.7
20260905143033 -17 0.0 0.0 0.00 0.00 0.00 1018.7
20260905142531 -17 0.0 0.0 0.00 0.00 0.00 1018.6
20260905142027 -17 0.0 0.0 0.00 0.00 0.00 1018.6
20260905141521 -17 0.0 0.0 0.00 0.00 0.00 1018.7
20260905141018 -17 0.0 0.0 0.00 0.00 0.00 1018.7
20260905140513 -17 0.0 0.0 0.00 0.00 0.00 1018.7
20260905140011 -17 0.0 0.0 0.00 0.00 0.00 1018.9
20260905135508 -17 0.0 0.0 0.00 0.00 0.00 1018.7
20260905135007 -17 0.0 0.0 0.00 0.00 0.00 1018.9
20260905134502 -17 0.0 0.0 0.00 0.00 0.00 1018.7
20260905134000 -17 0.0 0.0 0.00 0.00 0.00 1018.9
20260905133450 -17 0.0 0.0 0.00 0.00 0.00 1018.8
20260905132949 -17 0.0 0.0 0.00 0.00 0.00 1018.8
20260905132445 -17 0.0 0.0 0.00 0.00 0.00 1019.0
20260905131939 -17 0.0 0.0 0.00 0.00 0.00 1018.8
20260905131435 -17 0.0 0.0 0.00 0.00 0.00 1019.0
20260905130930 -17 0.0 0.0 0.00 0.00 0.00 1018.9
20260905130430 -17 0.0 0.0 0.00 0.00 0.00 1019.0
20260905125929 -17 0.0 0.0 0.00 0.00 0.00 1019.1
20260905125424 -17 0.0 0.0 0.00 0.00 0.00 1018.9
20260905124920 -17 0.0 0.0 0.00 0.00 0.00 1018.9
20260905124416 -17 0.0 0.0 0.00 0.00 0.00 1019.2
20260905123916 -17 0.0 0.0 0.00 0.00 0.00 1019.0
20260905123413 -17 0.0 0.0 0.00 0.00 0.00 1019.1
20260905122908 -17 0.0 0.0 0.00 0.00 0.00 1019.0
20260905122407 -17 0.0 0.0 0.00 0.00 0.00 1018.6
20260905121903 -17 0.0 0.0 0.00 0.00 0.00 1018.7
20260905121359 -17 0.0 0.0 0.00 0.00 0.00 1019.0
20260905120857 -17 0.0 0.0 0.00 0.00 0.00 1018.6
20260905120352 -17 0.0 0.0 0.00 0.00 0.00 1018.8
20260905115847 -17 0.0 0.0 0.00 0.00 0.00 1018.8
20260905115346 -17 0.0 0.0 0.00 0.00 0.00 1018.4
20260905114841 -17 0.0 0.0 0.00 0.00 0.00 1018.7
20260905114340 -17 0.0 0.0 0.00 0.00 0.00 1018.7
20260905113840 -17 0.0 0.0 0.00 0.00 0.00 1018.7
20260905113336 -17 0.0 0.0 0.00 0.00 0.00 1018.6
20260905112831 -17 0.0 0.0 0.00 0.00 0.00 1018.7
20260905112325 -17 0.0 0.0 0.00 0.00 0.00 1018.6
20260905111821 -17 0.0 0.0 0.00 0.00 0.00 1018.5
20260905111315 -17 0.0 0.0 0.00 0.00 0.00 1018.5
20260905110814 -17 0.0 0.0 0.00 0.00 0.00 1018.3
20260905110308 -17 0.0 0.0 0.00 0.00 0.00 1018.4
20260905105804 -17 0.0 0.0 0.00 0.00 0.00 1018.4
20260905105306 -17 0.0 0.0 0.00 0.00 0.00 1018.2
20260905104757 -17 0.0 0.0 0.00 0.00 0.00 1018.2
20260905104254 -17 0.0 0.0 0.00 0.00 0.00 1018.0
20260905103753 -17 0.0 0.0 0.00 0.00 0.00 1018.0
20260905103249 -17 0.0 0.0 0.00 0.00 0.00 1017.9
20260905102744 -17 0.0 0.0 0.00 0.00 0.00 1018.0
20260905102241 -17 0.0 0.0 0.00 0.00 0.00 1017.9
20260905101740 -17 0.0 0.0 0.00 0.00 0.00 1018.0
20260905101239 -17 0.0 0.0 0.00 0.00 0.00 1017.7
20260905100734 -17 0.0 0.0 0.00 0.00 0.00 1018.0
20260905100230 -17 0.0 0.0 0.00 0.00 0.00 1018.0
20260905095730 -17 0.0 0.0 0.00 0.00 0.00 1017.8
20260905095229 -17 0.0 0.0 0.00 0.00 0.00 1018.1
20260905094724 -17 0.0 0.0 0.00 0.00 0.00 1017.9
20260905094219 -17 0.0 0.0 0.00 0.00 0.00 1017.7
20260905093713 -17 0.0 0.0 0.00 0.00 0.00 1017.9